Theta_e
357 356 355 355 354 354 351 351 348 344 344 345 345 345 346 348 350 351 351 351 351 353 353 351 352 351 349 350 350 349 350 351 353 352 353 353 351 352 351 351 352 353 353 354 353 354 354 355 356 357 357 357 357 356 355 354 354 356 356 356 356 356 355
356 357 357 356 356 355 353 352 351 349 347 346 345 345 345 348 351 351 351 351 350 351 352 352 353 351 349 350 351 350 350 352 352 351 352 352 352 352 352 352 353 353 353 354 353 353 354 355 356 358 357 357 358 358 355 353 354 356 356 355 355 356 356
359 362 360 356 356 356 354 352 351 351 352 351 347 345 345 348 351 351 352 352 351 351 352 353 354 353 351 352 352 351 350 351 352 351 351 352 353 353 353 353 354 355 355 355 354 352 352 354 356 357 358 357 357 356 355 353 354 356 356 354 354 355 357
362 359 356 357 358 358 355 352 351 351 353 353 350 347 346 348 351 351 351 352 352 352 353 353 354 354 353 353 354 353 352 351 352 352 351 351 353 354 354 355 356 356 356 355 355 353 352 354 354 355 357 357 356 355 356 356 355 356 357 356 355 356 358
357 352 354 357 358 358 355 352 352 351 351 352 351 350 349 349 351 352 352 352 352 352 352 353 355 355 354 354 355 355 353 351 351 353 352 351 353 354 354 355 355 355 356 356 356 355 353 354 353 353 354 355 355 355 356 358 357 357 357 357 357 357 358
354 353 355 356 355 356 354 351 352 352 351 352 351 352 351 351 353 353 352 353 353 353 353 354 356 356 356 355 354 356 355 353 352 352 353 353 353 355 354 354 355 355 355 355 356 356 355 355 355 353 352 354 356 356 356 357 357 356 355 355 357 357 356
348 349 350 351 352 354 354 352 351 352 353 353 351 351 351 352 354 354 354 354 354 354 355 356 357 357 357 356 355 356 356 355 354 353 353 353 353 354 354 354 355 354 353 354 355 355 356 356 355 354 354 355 357 357 356 357 357 356 355 355 356 357 356
341 341 343 345 347 349 351 353 354 354 355 354 352 351 350 351 353 354 354 355 354 354 354 356 358 358 358 358 357 356 356 356 355 354 355 354 354 354 354 355 355 353 353 354 355 355 355 356 356 355 356 356 357 358 357 357 357 356 356 356 356 356 357
338 338 339 340 342 344 345 348 352 354 353 353 353 352 351 352 352 352 353 353 352 351 352 355 357 359 359 359 358 358 357 357 356 356 356 356 355 354 354 354 354 353 352 352 354 353 353 355 356 356 356 356 357 358 357 357 357 357 356 356 357 357 357
337 337 337 338 340 342 341 342 346 351 351 352 352 352 352 352 352 352 352 352 351 352 354 355 356 357 358 359 359 358 358 358 357 357 357 357 356 355 354 355 354 353 352 352 352 353 353 354 355 356 356 356 357 357 357 357 357 357 357 356 356 357 357
336 336 336 336 337 339 340 339 340 344 347 351 351 350 351 351 351 352 352 352 353 353 353 356 356 356 356 357 357 356 356 357 357 357 357 358 358 356 356 356 355 352 351 351 351 351 352 354 354 356 356 356 356 356 356 356 356 357 358 357 356 356 356
336 337 337 337 336 336 338 338 337 339 342 346 349 350 351 352 352 352 352 353 354 353 353 354 355 355 355 356 355 353 353 355 356 357 357 357 358 357 356 355 353 352 351 351 351 350 351 353 354 355 356 356 356 356 356 356 356 356 357 357 356 355 355
337 337 337 337 335 335 337 338 336 337 338 341 345 348 351 352 351 351 351 351 353 354 354 354 355 355 355 355 353 352 352 354 354 355 355 355 356 357 356 353 351 350 350 350 350 350 350 351 353 353 354 354 355 355 356 356 355 356 355 355 355 355 354
337 337 337 337 336 335 336 337 336 336 337 338 341 345 348 350 350 350 351 350 351 352 352 353 353 353 353 353 352 351 352 351 351 352 353 353 354 355 354 352 349 349 350 350 350 350 349 349 350 351 352 352 353 353 354 355 355 355 355 354 354 354 354
336 337 337 336 335 334 335 336 336 336 336 337 339 341 344 346 348 349 351 351 351 351 351 352 351 350 350 350 350 350 351 351 350 351 351 351 353 354 353 352 350 349 349 350 350 349 349 348 348 349 350 350 351 351 352 353 354 354 354 354 353 354 354
334 334 334 333 333 333 333 335 335 335 335 336 338 340 342 344 345 347 349 350 349 350 351 352 352 352 351 351 351 350 351 351 351 350 350 350 351 352 352 350 350 348 348 350 352 350 349 348 347 347 348 349 350 350 350 352 352 352 352 352 352 352 353
331 331 330 329 329 330 330 332 333 334 333 334 337 339 341 343 345 346 348 348 347 348 350 351 351 352 352 353 353 352 351 351 351 351 351 350 350 351 350 349 349 349 348 350 352 352 350 349 348 347 347 348 348 350 350 351 351 351 350 350 351 351 351
329 328 327 326 327 327 327 329 332 333 333 333 334 337 339 342 344 344 345 346 346 346 348 349 349 350 351 353 353 353 353 353 352 352 353 353 352 352 352 351 351 351 350 351 352 352 351 350 349 348 347 348 348 349 351 351 351 351 351 350 350 350 350
327 326 326 326 326 327 326 326 328 331 333 333 333 335 338 341 342 343 343 344 344 344 344 345 346 346 347 349 350 351 351 352 352 353 354 354 354 353 353 353 353 352 352 352 353 353 352 351 350 350 349 349 350 350 351 352 352 352 352 352 351 350 350
327 325 324 325 324 326 326 324 324 326 329 332 333 334 336 338 338 339 339 340 340 341 341 341 342 343 343 345 345 346 347 348 349 349 350 352 352 351 351 351 353 353 354 354 355 354 354 352 351 351 351 351 351 351 351 351 351 351 352 352 352 352 351
326 325 324 324 323 324 324 324 324 324 325 328 329 329 331 334 333 331 332 333 334 335 335 337 338 340 342 343 344 345 346 346 346 346 347 349 349 349 349 350 351 353 354 355 355 355 355 354 353 352 352 352 352 351 351 352 352 352 352 352 352 351 352
326 325 324 323 322 322 322 323 323 323 323 324 325 325 327 331 332 331 331 332 332 332 332 332 333 335 337 339 341 341 342 343 344 346 346 346 346 346 347 347 348 349 351 352 353 354 354 354 354 353 354 353 353 353 352 351 351 352 352 352 352 352 352
324 323 322 321 321 322 322 321 321 322 324 325 324 324 325 329 332 331 330 328 327 327 327 326 326 327 330 333 335 335 335 336 337 339 343 344 345 346 347 347 346 347 348 349 350 351 352 353 354 354 354 354 354 354 355 354 353 353 353 353 353 353 353
321 320 320 320 321 321 320 319 320 323 325 326 325 323 324 326 328 327 327 326 326 325 325 324 322 321 324 328 330 331 332 332 332 334 336 337 338 340 343 345 345 346 347 348 349 350 351 352 353 353 354 353 353 355 356 355 354 354 354 354 354 354 355
318 319 320 320 319 319 319 319 320 322 324 325 325 323 322 324 326 327 327 327 327 326 326 325 322 320 323 326 327 328 328 330 331 332 333 334 334 334 336 338 339 341 343 344 346 348 349 349 350 351 353 352 352 355 356 355 354 353 353 353 353 354 355
318 319 320 319 318 318 318 319 320 321 322 323 324 323 322 323 326 327 326 326 326 325 325 324 323 322 325 327 328 327 325 325 327 328 328 330 331 332 333 334 334 334 334 334 336 339 342 345 347 349 349 350 351 352 353 352 351 350 350 350 351 352 353
319 320 319 319 318 318 318 319 320 320 320 321 322 323 323 324 325 325 324 324 324 323 323 323 324 324 326 327 326 325 322 322 324 326 326 327 328 328 329 330 331 332 333 334 334 334 335 337 339 340 341 342 344 345 347 349 349 349 349 349 350 350 350
319 319 319 318 318 318 319 319 319 319 320 320 321 322 322 323 323 322 322 322 322 322 323 324 324 325 326 325 324 323 323 323 325 326 327 327 327 326 325 324 325 326 329 333 336 337 336 335 336 337 337 335 337 344 348 348 348 350 351 351 350 351 350
318 318 318 318 318 318 319 319 319 319 319 319 320 320 321 321 321 321 321 321 321 322 323 323 324 324 324 323 324 324 323 324 324 325 325 326 325 325 325 324 324 325 325 327 332 336 337 336 338 342 342 340 342 345 342 336 333 337 342 344 346 349 352
318 318 317 318 318 318 319 319 319 319 319 319 319 320 320 320 320 320 320 320 321 322 323 323 323 323 324 323 323 323 322 322 323 324 325 325 325 326 326 326 326 327 327 328 330 333 334 335 338 343 347 347 346 342 335 328 323 321 323 328 335 341 346
317 318 318 317 318 318 318 318 318 318 318 318 318 319 319 319 319 319 319 320 320 321 321 321 321 322 322 321 321 321 322 322 323 324 324 324 324 324 323 324 324 325 325 326 328 330 332 334 339 343 346 345 341 335 330 327 323 318 319 325 331 335 339
317 317 317 317 317 317 317 317 317 317 316 317 317 318 318 318 318 318 318 318 318 319 319 320 320 320 320 320 320 320 321 321 322 323 322 322 322 322 321 322 323 322 322 323 324 325 326 327 329 331 332 331 330 328 326 324 321 320 323 328 332 337 342
316 317 316 316 316 316 316 316 316 316 316 316 316 316 316 316 316 316 316 316 316 317 317 317 317 318 318 318 319 319 319 320 321 321 320 320 321 321 320 321 321 319 320 321 323 324 324 325 325 324 324 325 326 326 326 326 324 323 325 329 333 337 341
316 316 316 315 315 315 315 315 314 315 315 315 315 315 315 315 315 314 315 315 315 315 315 316 316 317 317 317 318 318 318 318 319 318 318 318 318 318 317 318 317 317 318 321 323 324 324 325 326 326 326 326 327 327 327 327 327 327 327 328 331 334 335
315 315 315 314 314 314 314 314 314 315 314 314 314 314 314 314 314 314 314 314 314 314 315 315 316 316 316 316 316 316 317 317 317 317 317 317 317 316 316 317 317 318 318 319 321 322 322 323 325 325 325 325 326 325 325 325 326 327 327 327 327 329 331
314 314 314 313 313 313 313 313 314 314 313 313 313 313 313 313 313 313 313 313 314 314 315 315 315 315 315 315 315 315 316 316 316 316 317 317 317 316 316 317 318 319 319 318 319 319 320 321 323 323 324 324 325 325 325 325 325 325 326 326 326 326 328
314 313 313 312 313 313 313 313 313 313 312 312 312 312 312 312 312 313 313 314 314 315 315 315 315 315 315 315 315 316 317 317 317 317 316 316 317 318 318 319 319 319 319 319 319 319 319 320 321 321 322 322 323 324 324 323 323 324 325 326 326 326 327
314 313 312 312 312 313 313 312 312 311 311 311 311 312 312 312 313 314 314 314 314 314 314 314 314 314 315 315 316 317 318 318 318 317 317 317 317 318 319 319 319 319 318 317 318 318 318 319 319 320 321 321 322 322 323 323 324 325 326 326 326 326 326
Wind_Speed
9 9 9 9 10 10 9 11 16 20 23 26 30 31 32 33 34 33 34 35 34 32 31 31 30 29 29 28 27 26 26 23 22 21 19 20 20 19 19 20 21 21 19 17 17 16 15 15 16 15 13 14 14 12 11 11 11 11 11 10 10 10 9
8 7 4 3 4 4 4 5 7 12 17 21 28 32 31 32 34 34 34 35 36 35 33 31 30 30 30 29 28 27 27 25 23 21 19 20 21 20 19 19 20 21 20 18 17 16 15 16 17 16 15 15 14 13 12 11 11 11 11 10 10 10 9
6 5 4 5 6 5 7 10 7 4 9 12 22 29 30 32 35 36 35 35 35 35 35 34 32 31 30 29 28 28 27 26 24 22 20 20 21 20 19 19 19 19 19 19 17 15 15 16 18 17 15 15 14 13 12 12 11 11 10 11 11 11 10
4 6 7 7 9 9 11 11 9 9 9 9 15 23 28 32 35 36 36 37 36 35 34 34 33 32 30 29 28 27 27 28 26 23 21 20 19 20 20 19 19 18 18 18 17 16 14 15 17 17 16 14 14 13 12 11 11 11 10 11 12 12 11
7 9 5 4 6 5 7 13 17 16 11 11 16 20 24 29 31 33 36 37 37 36 36 35 33 31 30 29 28 26 26 27 27 24 22 20 19 19 20 20 19 18 18 17 16 15 15 15 14 15 15 15 13 12 12 11 11 11 12 12 13 13 12
9 8 4 3 4 3 4 9 16 20 20 20 21 17 17 23 26 29 34 36 36 35 32 31 31 30 29 28 27 26 25 25 26 25 23 21 20 19 20 20 19 18 18 17 16 15 15 15 13 12 14 15 14 14 13 12 11 11 12 13 13 12 12
9 8 6 5 4 1 5 9 13 16 19 22 21 15 14 17 20 23 27 30 32 32 31 30 29 28 28 28 27 26 25 25 25 24 24 22 21 21 20 20 20 19 18 18 18 17 15 15 14 13 14 15 16 15 14 14 13 12 12 13 13 12 11
10 8 7 6 4 3 3 3 8 9 8 11 15 17 17 14 11 14 18 18 16 15 16 20 23 23 23 23 25 25 25 25 24 24 24 23 23 23 21 21 21 20 20 20 20 19 18 17 17 16 16 16 17 16 15 15 15 13 12 12 13 12 12
9 7 6 7 6 5 7 5 7 13 12 11 14 17 18 13 10 11 11 6 4 3 4 8 14 19 22 22 23 24 23 24 25 24 23 24 24 25 24 23 23 22 22 22 21 20 21 20 20 19 19 18 18 18 17 17 17 16 14 14 13 13 12
8 7 6 6 6 6 9 9 7 14 17 14 12 13 16 15 15 16 13 8 9 13 15 16 15 16 21 23 23 22 20 20 23 24 25 25 24 25 25 24 24 24 24 24 23 22 22 22 21 21 21 21 20 19 19 19 19 18 17 16 15 14 14
7 6 6 7 7 8 9 10 9 9 12 13 11 12 14 15 16 18 17 15 17 21 25 26 21 16 16 18 18 17 14 15 19 21 24 26 25 24 25 24 24 25 25 26 25 24 23 23 22 22 23 24 22 21 20 20 21 21 21 19 16 16 15
6 5 6 7 8 7 7 9 11 11 10 11 12 13 14 15 17 18 18 18 18 21 23 23 21 20 20 18 17 17 16 18 21 19 18 23 25 24 23 22 22 23 25 26 26 25 24 25 24 23 24 24 23 22 21 21 22 22 22 22 20 18 18
6 6 6 7 7 7 8 9 11 13 14 12 12 14 15 16 18 18 18 18 17 17 19 20 20 21 22 20 18 18 18 19 22 20 16 17 21 23 21 18 16 16 19 23 27 26 25 26 27 26 25 25 24 23 23 22 22 23 23 23 22 21 20
8 7 6 6 7 7 7 8 9 12 15 16 14 13 15 18 19 19 18 18 18 16 17 19 20 18 16 17 18 18 16 14 16 17 17 17 19 20 19 17 15 13 13 16 23 27 27 27 28 28 27 27 26 25 24 23 23 23 23 23 23 23 23
9 8 7 7 7 7 7 7 8 11 14 17 18 18 18 19 18 20 19 17 17 15 12 13 15 15 13 15 18 18 15 13 15 17 18 19 21 21 19 18 17 15 12 12 16 24 29 29 29 29 30 29 29 27 26 25 24 24 24 23 23 23 24
10 8 7 6 6 7 7 7 9 11 13 15 17 17 18 18 18 19 19 15 14 13 12 13 14 14 15 15 16 17 15 15 17 19 18 18 19 20 20 18 17 17 14 11 11 18 27 30 29 29 30 31 31 30 29 28 27 26 25 25 25 24 24
10 8 7 6 6 7 7 6 8 11 13 15 16 16 16 16 17 18 16 15 14 12 12 15 16 15 15 14 13 14 14 15 16 16 17 15 14 17 19 19 18 17 15 12 10 12 20 25 26 27 28 30 31 31 31 30 29 28 27 27 27 27 26
9 8 7 6 5 6 7 6 7 10 13 15 16 17 16 15 16 16 14 15 15 13 11 13 15 15 15 15 14 12 11 12 13 14 14 14 12 11 13 15 16 15 14 13 11 10 11 15 18 20 22 25 27 29 30 30 30 29 29 29 29 29 28
8 8 7 6 5 5 6 6 8 10 13 15 18 19 17 17 17 16 13 13 14 14 12 11 11 12 11 11 11 11 9 10 11 12 12 12 11 8 7 8 9 10 11 12 12 11 9 9 11 13 14 15 17 19 22 24 27 28 29 29 29 29 29
7 6 6 6 6 5 5 8 11 12 14 16 17 18 18 18 18 17 15 15 16 15 15 14 14 13 9 7 6 7 6 7 7 8 9 9 7 6 5 4 4 5 6 7 9 10 11 10 10 11 11 11 11 12 14 16 20 24 27 28 29 28 29
7 7 6 6 5 6 6 9 11 13 14 16 17 17 16 16 18 19 19 18 19 18 18 19 18 16 12 9 8 8 8 8 7 7 6 6 5 4 3 2 1 1 2 3 4 6 9 10 11 10 10 10 10 10 12 13 15 17 20 24 26 27 29
6 6 6 6 8 9 9 10 12 14 14 17 19 20 17 15 14 15 17 17 17 18 17 18 18 15 13 11 11 11 11 10 9 9 8 7 6 5 5 4 2 1 1 2 3 4 5 7 9 9 8 8 8 8 11 13 14 14 15 16 18 20 22
9 8 8 10 13 14 15 16 19 19 17 17 19 22 21 17 14 14 15 16 17 17 15 16 17 15 13 12 12 12 12 12 12 11 9 8 7 6 5 4 3 2 1 1 2 3 3 4 5 5 3 3 3 4 7 10 11 11 11 12 13 15 17
13 13 12 15 17 18 18 20 22 21 19 18 18 18 20 20 17 16 17 18 18 16 15 15 16 15 13 12 12 12 12 11 12 12 10 9 8 7 5 3 2 2 2 2 3 3 3 4 5 5 6 6 6 6 6 6 6 7 7 8 9 12 14
13 16 17 19 20 20 20 21 22 22 21 19 17 15 15 17 18 18 18 18 18 17 16 16 16 15 13 12 11 12 12 12 11 11 11 10 9 8 7 5 4 4 5 5 5 6 4 3 5 5 4 5 5 6 7 6 6 9 12 13 13 13 14
15 18 19 20 21 21 21 22 23 23 21 19 17 15 13 13 15 17 17 16 16 17 16 15 14 13 12 11 11 11 11 12 11 11 11 10 10 9 8 8 6 5 5 6 6 7 5 3 4 3 1 4 6 10 10 8 7 9 10 13 15 16 17
19 20 20 19 18 19 22 23 22 22 21 18 17 15 13 13 14 16 15 15 16 16 14 12 11 11 11 11 12 12 12 12 12 12 11 10 10 10 10 10 10 8 7 6 6 6 6 6 6 5 5 6 7 8 7 7 8 9 9 11 14 15 16
20 20 20 18 17 18 21 22 21 21 19 17 16 16 14 14 15 15 14 14 15 14 12 11 10 10 10 10 12 13 14 13 13 13 12 11 12 12 12 13 13 11 10 9 7 6 6 6 6 6 7 7 7 7 6 7 7 8 9 10 11 13 14
18 18 18 18 16 17 20 21 20 19 18 16 15 15 14 14 14 13 13 14 14 11 10 10 10 9 10 11 12 13 14 14 14 14 13 13 14 15 15 16 15 15 14 13 11 9 8 7 5 5 7 8 5 3 5 8 11 12 12 12 12 12 12
18 18 17 17 16 16 18 19 18 17 16 14 13 13 13 13 13 12 12 12 11 9 9 9 9 9 10 11 12 14 14 15 14 14 14 15 15 15 17 17 16 17 17 16 12 10 10 10 9 8 7 5 1 4 7 10 14 16 15 14 14 13 12
18 18 17 16 15 15 16 17 16 15 14 12 12 11 11 11 12 11 11 11 10 9 8 8 8 8 9 11 12 14 15 16 15 15 15 15 15 15 16 17 16 17 18 19 17 13 11 11 10 7 5 5 5 7 10 14 17 18 16 14 15 15 14
17 17 16 15 14 13 13 14 13 13 12 11 10 10 9 9 10 11 11 10 10 9 8 8 8 8 8 10 11 14 16 16 16 15 15 15 14 15 16 16 16 16 18 18 18 17 16 15 14 12 10 10 10 12 15 16 18 17 15 13 15 15 13
16 16 16 14 13 12 11 12 11 10 10 10 9 8 8 9 10 10 10 9 9 9 8 8 8 8 8 8 10 13 15 16 16 16 16 16 15 16 16 15 16 17 18 18 19 19 18 18 17 16 15 15 15 16 17 18 18 17 14 14 14 15 15
16 17 16 14 12 10 9 9 8 8 10 10 9 7 7 8 9 9 9 8 8 8 9 9 8 8 8 8 10 12 14 15 16 17 18 18 17 17 17 17 18 18 17 16 17 18 19 20 19 17 16 16 17 18 19 19 18 17 17 17 17 18 20
17 17 16 13 10 8 7 6 6 8 10 10 8 7 6 6 8 8 8 8 8 8 8 9 8 8 9 9 10 12 13 14 15 16 18 19 19 19 18 17 17 18 17 15 14 15 16 18 19 18 18 18 18 18 19 20 20 19 19 20 20 22 24
18 17 14 11 8 6 5 4 6 9 10 9 7 7 6 5 6 6 6 7 7 7 8 9 9 9 10 10 11 12 12 13 13 14 16 17 19 20 20 18 17 17 17 18 17 15 14 15 17 17 18 19 20 19 19 22 22 21 20 20 21 22 23
19 15 11 8 6 6 5 6 9 10 9 6 5 4 4 4 4 4 5 6 7 8 8 9 9 10 11 11 12 12 13 13 13 14 14 15 17 19 20 20 20 18 17 17 18 17 16 15 16 16 17 19 20 21 21 21 22 22 21 21 21 20 21
18 14 10 8 8 8 9 11 10 8 6 5 4 3 3 3 4 5 6 6 7 8 9 9 10 11 11 12 13 15 15 15 15 15 16 16 16 17 18 19 20 21 20 19 19 19 19 18 17 17 17 18 19 20 21 22 22 23 23 22 22 22 22
Wind_Direction
181 189 192 192 197 197 192 187 184 182 178 175 176 178 180 182 184 185 188 190 192 192 194 197 200 201 202 202 202 201 202 200 199 204 208 207 206 204 204 206 206 207 208 209 210 213 215 212 211 213 215 217 216 217 219 213 209 213 214 218 226 231 230
184 179 173 178 196 203 181 160 169 175 178 180 181 181 182 183 184 186 188 191 193 194 195 198 201 202 203 205 205 204 204 202 203 209 213 210 207 207 206 205 206 208 211 214 215 215 214 211 210 214 217 219 219 223 227 220 213 212 214 222 230 231 232
177 143 92 74 78 69 66 56 42 115 151 174 185 184 183 185 186 187 188 190 192 194 195 197 200 202 204 205 206 207 206 204 205 210 214 210 205 206 207 207 209 211 214 216 218 217 213 210 210 213 219 222 221 224 229 225 219 215 217 225 230 228 231
125 85 89 111 114 117 127 140 173 179 145 147 178 184 184 186 187 188 190 191 192 193 194 197 199 200 202 205 206 208 208 206 207 210 213 212 207 206 207 209 212 214 216 218 219 219 216 214 213 214 220 225 223 224 229 229 226 223 224 227 227 224 229
82 72 81 125 124 125 149 162 175 177 167 160 168 177 183 184 186 188 190 192 193 194 195 197 198 199 201 204 206 209 210 208 209 212 214 214 211 209 209 212 215 216 219 220 220 219 217 217 217 217 222 226 226 227 232 234 233 229 227 227 227 225 230
76 84 92 96 93 108 172 176 171 174 186 190 179 172 175 179 184 188 190 192 193 194 195 195 197 198 199 203 205 208 211 211 212 214 216 216 214 213 214 217 220 222 223 221 221 220 218 220 218 216 220 222 225 231 234 236 238 236 231 230 232 234 237
72 77 78 79 81 118 196 191 181 180 189 194 186 175 174 179 183 187 190 192 192 192 191 193 196 198 199 202 204 208 210 212 215 216 217 219 218 217 219 222 225 227 225 224 224 223 222 223 218 215 218 219 222 229 233 234 239 240 238 235 236 239 240
65 65 66 70 63 3 321 208 175 166 171 185 183 181 184 181 177 186 192 193 191 186 183 187 191 194 197 200 203 209 212 212 214 217 218 220 222 222 222 224 227 228 227 227 227 225 223 223 220 217 218 218 221 226 231 235 239 240 240 239 238 240 242
67 65 59 57 55 25 2 13 130 136 140 166 175 175 176 160 145 174 188 179 164 143 141 175 186 188 191 195 200 206 212 214 214 216 219 221 223 223 223 225 227 229 231 231 228 225 223 223 223 221 220 219 220 223 227 231 235 236 238 239 239 241 244
70 64 60 59 50 39 28 27 77 127 145 160 154 149 160 154 148 161 163 149 173 192 196 197 198 194 191 195 199 201 206 214 215 217 219 220 222 223 222 225 228 230 233 234 232 229 225 222 223 223 221 220 219 222 225 227 230 232 234 237 238 239 243
72 65 57 57 47 37 35 31 42 99 140 152 140 138 151 151 146 154 159 163 178 194 202 203 202 198 196 200 202 201 202 209 212 216 220 220 221 223 224 227 230 232 233 234 234 234 229 223 222 223 221 219 219 222 224 225 228 229 231 233 234 236 241
63 63 52 51 50 40 32 30 32 49 83 114 132 142 146 145 144 149 154 158 167 184 199 204 197 193 199 202 200 201 208 210 207 210 219 222 220 221 223 227 230 231 232 233 233 234 232 227 225 225 222 221 222 225 226 227 229 230 232 234 234 235 238
65 62 53 50 55 48 41 38 34 38 49 67 101 125 132 135 138 141 148 153 159 174 190 194 189 190 199 200 192 197 210 214 209 205 210 220 220 220 221 219 219 224 230 232 232 233 234 232 230 229 228 228 228 229 230 231 232 234 236 236 235 236 237
76 69 61 58 58 55 51 48 41 40 44 50 61 82 102 112 119 124 134 148 159 170 183 188 187 188 196 196 194 203 216 219 210 204 206 214 215 216 220 218 215 216 222 231 234 233 234 235 234 233 232 233 234 234 233 233 234 237 240 239 237 237 239
80 70 66 68 68 67 65 62 54 48 51 57 58 61 71 83 100 116 124 137 150 155 161 168 171 171 172 182 195 208 218 214 206 206 212 216 214 212 217 224 225 222 224 232 237 235 235 235 236 235 233 233 234 235 235 233 234 238 240 241 239 238 240
90 81 75 76 80 80 74 67 67 63 60 64 67 73 80 80 87 105 119 129 129 123 123 128 136 144 150 163 183 199 205 202 200 206 213 218 218 217 220 228 232 234 236 239 242 237 234 234 235 235 234 234 234 235 235 234 235 237 239 240 241 241 241
101 98 91 87 89 92 87 77 77 77 72 69 71 80 88 91 95 103 114 124 122 114 119 123 121 123 131 142 160 179 190 193 192 196 203 209 217 222 226 233 239 242 243 244 247 240 231 231 235 237 236 235 234 234 234 235 237 239 239 240 241 242 243
108 110 109 105 100 98 97 94 91 89 84 78 77 79 84 90 97 101 108 119 126 128 126 124 121 120 123 129 138 146 155 167 169 168 176 186 191 201 215 227 236 242 244 243 244 239 226 224 227 230 233 233 233 234 235 236 239 240 242 243 244 244 245
101 107 110 104 93 89 92 97 100 103 99 88 79 81 89 95 94 96 102 110 119 127 129 124 117 115 118 125 132 135 131 136 144 141 142 152 158 160 174 196 216 229 236 237 236 235 228 218 213 213 215 218 223 228 232 236 239 240 242 244 246 247 248
89 89 81 73 75 72 80 94 97 99 101 100 93 89 92 94 94 95 98 97 99 105 109 107 102 99 103 111 121 125 118 112 117 120 120 126 132 131 133 147 173 199 216 225 229 229 226 223 218 214 211 210 210 212 218 227 235 239 241 243 246 248 248
93 88 73 69 64 55 73 97 96 89 92 100 102 97 95 98 100 98 94 90 87 86 85 86 88 91 95 99 103 106 104 96 90 92 97 98 91 79 71 74 97 160 208 227 237 238 233 229 226 223 221 221 220 220 222 222 226 233 238 241 244 247 248
105 94 85 77 58 56 79 94 86 83 91 96 91 86 91 106 113 104 93 86 82 79 78 77 76 78 80 77 77 81 82 81 80 79 79 74 67 63 57 48 37 20 312 261 260 261 257 249 242 237 234 231 230 234 239 239 238 239 241 244 247 249 250
111 100 83 68 61 69 82 81 76 84 96 96 85 78 81 95 109 105 94 86 81 77 75 70 64 62 60 55 53 56 58 63 66 67 67 64 60 60 61 56 54 57 31 316 304 289 281 284 278 269 277 293 283 267 257 254 254 255 255 255 255 253 253
106 99 83 70 68 71 72 70 73 85 93 91 83 77 78 85 94 92 84 81 79 74 64 52 45 42 44 44 43 42 42 47 52 50 50 51 47 42 36 27 31 35 24 11 8 7 358 353 349 335 336 353 356 342 326 303 288 293 293 283 273 266 263
94 88 79 76 76 71 67 69 75 81 85 84 80 77 77 82 85 82 75 72 71 64 52 39 26 23 29 34 37 40 39 40 41 35 32 32 30 26 20 11 9 9 6 1 358 1 3 10 13 355 317 308 295 276 286 300 303 312 316 310 300 291 283
97 90 83 82 82 76 71 73 74 74 74 74 75 77 79 81 82 77 70 65 59 50 43 34 20 15 20 24 27 30 30 31 33 28 23 19 12 7 5 2 359 358 5 5 358 355 349 346 14 27 278 267 262 248 251 271 276 278 294 297 290 286 285
100 94 89 87 86 81 77 77 76 74 71 72 76 78 80 83 79 72 65 57 45 35 30 29 22 18 18 15 13 11 8 12 19 20 19 16 6 359 356 354 353 349 347 351 352 357 354 336 335 343 321 297 282 270 281 307 297 279 285 290 284 282 285
97 91 89 89 86 82 81 81 80 78 73 73 76 76 79 83 78 69 63 52 36 23 17 21 22 20 15 8 5 4 1 2 7 8 9 8 4 359 354 352 352 348 342 337 331 339 351 333 309 314 315 298 288 298 323 352 350 332 324 316 300 292 289
98 92 90 87 82 84 88 86 82 78 75 73 74 73 76 80 75 68 62 48 32 23 22 23 20 16 12 7 3 2 1 359 359 359 359 359 357 354 351 350 350 351 349 342 327 320 331 334 307 275 267 264 269 326 13 25 19 4 350 340 328 314 302
102 98 94 90 86 89 93 90 86 82 78 73 72 72 70 72 73 68 57 43 33 35 35 25 15 9 7 4 0 0 0 360 0 0 360 359 359 358 359 0 4 8 10 8 355 329 316 321 318 298 282 280 326 44 25 10 6 358 347 340 334 324 316
106 104 101 96 93 93 93 92 89 84 78 72 70 70 65 65 66 60 50 44 44 45 36 26 19 10 0 357 356 357 360 2 6 8 9 10 11 11 12 14 16 18 20 23 23 12 354 349 351 349 0 24 33 14 355 349 350 348 340 330 323 317 315
110 111 109 104 100 97 94 93 89 83 78 73 70 69 67 63 61 56 51 51 54 52 44 39 34 21 6 359 356 359 2 4 7 9 9 12 13 13 17 20 15 9 10 13 15 13 9 7 5 2 1 357 347 339 337 336 336 336 331 320 312 307 302
115 116 114 111 108 104 98 92 87 83 82 79 73 68 66 61 55 50 45 45 48 47 41 37 32 23 13 1 354 359 2 1 359 358 357 359 0 359 4 10 5 0 3 5 4 2 360 356 351 347 344 340 337 334 331 329 328 328 325 319 312 302 295
119 117 114 114 112 107 101 95 93 92 89 83 72 60 53 48 41 34 28 29 31 30 29 32 32 27 20 6 356 359 360 355 352 350 349 348 348 347 349 354 354 353 357 2 1 355 350 347 345 343 339 336 334 334 331 327 327 326 324 319 312 304 300
122 119 118 116 111 108 109 108 108 102 92 84 73 61 51 38 28 24 23 22 19 15 18 23 24 21 18 10 0 358 357 352 348 347 344 342 340 341 343 347 352 352 350 350 352 348 342 339 340 341 339 334 331 330 327 323 324 325 323 318 310 304 303
124 123 121 117 115 124 132 133 121 109 96 86 76 62 47 31 22 21 22 16 11 11 14 14 14 12 8 4 358 354 351 348 344 343 341 338 336 335 334 335 343 349 346 342 341 339 336 334 333 334 333 331 328 327 322 318 320 321 320 317 311 303 299
132 128 124 125 136 144 136 122 117 109 95 80 65 46 36 30 20 19 20 16 16 20 21 19 18 15 9 2 356 350 345 340 337 337 337 336 337 336 332 329 332 339 343 342 340 339 338 334 329 327 326 325 324 323 318 315 316 317 316 316 314 308 302
140 135 138 149 151 137 120 113 110 99 83 71 54 36 31 21 13 24 33 30 27 28 26 23 18 11 6 360 353 350 349 345 342 341 339 340 344 344 341 337 334 334 335 334 333 333 332 330 328 327 324 322 321 320 317 315 315 316 314 313 312 310 308